Location: Cuiry
(49.3858°N, 3.7708°E)
Time: 23:02:07
(UTC+00:00)

Cosmos 2056 Rocket - Pass Details

Date: 12 January 2026
Orbit: 739 x 795 km, 74.0° (Epoch: 9 February)

Event Time Altitude Azimuth Distance (km) Brightness Sun altitude
Rises 18:05:00 0° 213° (SSW) 3,194 7.4 -18.0°
Reaches altitude 10° 18:07:24 10° 217° (SW) 2,266 6.6 -18.4°
Maximum altitude 18:12:28 59° 297° (WNW) 861 3.9 -19.2°
Enters shadow 18:16:55 13° 16° (NNE) 2,037 5.4 -19.9°
